Location: Ffm
(50.0000°N, 8.5000°E)
Time: 09:56:39
(UTC+01:00)

Envisat - Pass Details

Date: 05 November 2020
Orbit: 764 x 766 km, 98.1° (Epoch: 03 December)

Event Time Altitude Azimuth Distance (km) Brightness Sun altitude
Rises 05:43:17 0° 21° (NNE) 3,243 6.5 -16.2°
Reaches altitude 10° 05:45:50 10° 31° (NNE) 2,311 5.8 -15.8°
Maximum altitude 05:50:24 32° 95° (E) 1,283 4.9 -15.1°
Drops below altitude 10° 05:54:56 10° 158° (SSE) 2,295 5.9 -14.4°
Sets 05:57:27 0° 168° (SSE) 3,216 6.5 -14.0°
